UAE186 LEBL-OMDB

Flight info

Callsign UAE186
Flight time N/A
Altitude 32000
Route DIPES N725 OSPOK/N0491F330 DCT NOLVI DCT ORKUM DCT ELSAG DCT ALG DCT SENTI DCT SUSOM DCT BONAR M980 LOSUL M855 MMA P751 DASUM Y234 FYM/N0488F350 M872 BDB Y214 RAPMA DCT KUVSO DCT KATIT DCT PEKEM M628 RIGIL G783 ASPED Q308 KIPOK Q568 IMPED
Aircraft B77W/H-SDE2E3GHIJ1J3J4J5M1P2RWXYZ/LB1D1

Departure

Time 2026-05-04 09:08
Airport Josep Tarradellas Barcelona-El Prat Airport (LEBL)

Arrival

Time N/A
Airport Dubai International Airport (OMDB)
Time Latitude Longitude Altitude Speed Heading
2026-05-04 08:43 41.29171 2.07485 27 ft 0 kts 230°
2026-05-04 08:57 41.29235 2.07599 28 ft 4 kts 282°
2026-05-04 09:01 41.29402 2.07736 21 ft 13 kts 66°
2026-05-04 09:01 41.29439 2.07844 22 ft 13 kts 65°
2026-05-04 09:01 41.29486 2.07981 20 ft 20 kts 65°
2026-05-04 09:01 41.29543 2.08146 21 ft 20 kts 65°
2026-05-04 09:02 41.29539 2.08274 21 ft 14 kts 147°
2026-05-04 09:02 41.29446 2.08331 25 ft 15 kts 155°
2026-05-04 09:02 41.29343 2.08393 29 ft 17 kts 155°
2026-05-04 09:02 41.29237 2.08456 30 ft 17 kts 156°
2026-05-04 09:03 41.29131 2.08520 25 ft 17 kts 155°
2026-05-04 09:03 41.29025 2.08585 26 ft 17 kts 155°
2026-05-04 09:03 41.28919 2.08650 25 ft 17 kts 155°
2026-05-04 09:03 41.28869 2.08743 24 ft 13 kts 75°
2026-05-04 09:04 41.28915 2.08886 23 ft 22 kts 65°
2026-05-04 09:04 41.28991 2.09107 26 ft 28 kts 65°
2026-05-04 09:04 41.29071 2.09341 24 ft 28 kts 65°
2026-05-04 09:04 41.29152 2.09575 24 ft 28 kts 65°
2026-05-04 09:05 41.29233 2.09809 24 ft 28 kts 65°
2026-05-04 09:05 41.29322 2.10034 25 ft 25 kts 63°
2026-05-04 09:05 41.29364 2.10218 20 ft 18 kts 105°
2026-05-04 09:05 41.29293 2.10294 19 ft 13 kts 154°
2026-05-04 09:06 41.29214 2.10296 24 ft 9 kts 218°
2026-05-04 09:07 41.28336 2.07763 176 ft 198 kts 245°
2026-05-04 09:08 41.27715 2.06175 1147 ft 191 kts 229°
2026-05-04 09:08 41.26548 2.05284 1704 ft 203 kts 188°
2026-05-04 09:08 41.25132 2.05341 2189 ft 203 kts 179°
2026-05-04 09:08 41.23735 2.05430 2818 ft 199 kts 179°
2026-05-04 09:09 41.22357 2.05531 3360 ft 200 kts 181°
2026-05-04 09:09 41.20897 2.05565 3625 ft 217 kts 182°
2026-05-04 09:09 41.19393 2.05579 4280 ft 216 kts 182°
2026-05-04 09:09 41.17889 2.05626 4869 ft 218 kts 175°
2026-05-04 09:10 41.16433 2.06406 5129 ft 238 kts 151°
2026-05-04 09:10 41.14979 2.07606 5490 ft 252 kts 152°
2026-05-04 09:10 41.13974 2.08410 5843 ft 259 kts 152°
2026-05-04 09:10 41.11856 2.10084 6616 ft 270 kts 152°
2026-05-04 09:11 41.10803 2.10974 7017 ft 273 kts 143°
2026-05-04 09:11 41.09650 2.13023 7539 ft 286 kts 113°
2026-05-04 09:11 41.09147 2.15592 8270 ft 291 kts 98°
2026-05-04 09:11 41.09075 2.18286 9001 ft 295 kts 91°
2026-05-04 09:12 41.09158 2.21020 9712 ft 299 kts 89°
2026-05-04 09:12 41.09271 2.23788 10317 ft 305 kts 89°
2026-05-04 09:14 41.09390 2.47592 13370 ft 406 kts 94°
2026-05-04 09:14 41.09283 2.51347 14049 ft 411 kts 94°
2026-05-04 09:14 41.09177 2.55166 14696 ft 417 kts 94°